ARTHUR-1 (48953 NORAD) Tracking and Keplerian Element Data

This shows tracking and keplerian element data for the satellite.

Feedback or suggestion? Click here.




ElementValue
Catalog48953
NameARTHUR-1
Epoch Orbit1396
Epoch Day269.11623955
Epoch Year2021
RAAN36.7798
Inclination97.5208
Eccentricity0.0013683
Argument of Perigee298.8919
Mean Anonmoly235.8938
Mean Motion15.14294217
Decay Rate1.467E-05
L11 48953U 21059CC 21269.11623955 .00001467 00000-0 83661-4 0 9994
L22 48953 97.5208 36.7798 0013683 298.8919 235.8938 15.14294217 13962

Live tracking and technical data element details for ARTHUR-1 (NORAD 48953). ARTHUR-1 can be tracked NOW for your location showing map with azimuth and elevation plus other details from your city location.

Track the satellite on the map from your city or location and see movement details for azimuth, elevation, latitude, longitude, range, height, and movement on the map or in text.







IsCatalogInMostPopularTable: catalog: 48953, numindb: 14
Update: records affected: 1



GetName: 48953 ARTHUR-1

Hit Count: updated at: Sun, 26 Sep 2021 16:46:25 GMT